Time,TemperatureF,DewpointF,PressureIn,WindDirection,WindDirectionDegrees,WindSpeedMPH,WindSpeedGustMPH,Humidity,HourlyPrecipIn,Conditions,Clouds,dailyrainin,SoftwareType,DateUTC
2013-10-10 00:09:00,45.3,43.0,29.80,South,184,0.0,0.0,90,0.00,,,0.00,weatherlink.com 1.10,2013-10-10 07:09:00,
2013-10-10 00:24:00,44.7,42.0,29.80,South,184,0.0,0.0,90,0.00,,,0.00,weatherlink.com 1.10,2013-10-10 07:24:00,
2013-10-10 00:39:00,44.2,42.0,29.80,South,184,0.0,0.0,91,0.00,,,0.00,weatherlink.com 1.10,2013-10-10 07:39:00,
2013-10-10 00:54:00,44.1,42.0,29.80,South,184,0.0,0.0,91,0.00,,,0.00,weatherlink.com 1.10,2013-10-10 07:54:00,
2013-10-10 01:09:00,44.3,42.0,29.82,South,184,0.0,0.0,92,0.00,,,0.00,weatherlink.com 1.10,2013-10-10 08:09:00,
2013-10-10 01:24:00,43.7,41.0,29.82,South,184,0.0,0.0,91,0.00,,,0.00,weatherlink.com 1.10,2013-10-10 08:24:00,
2013-10-10 01:39:00,43.5,41.0,29.82,South,184,0.0,0.0,92,0.00,,,0.00,weatherlink.com 1.10,2013-10-10 08:39:00,
2013-10-10 01:54:00,43.2,41.0,29.82,South,184,0.0,0.0,92,0.00,,,0.00,weatherlink.com 1.10,2013-10-10 08:54:00,
2013-10-10 02:09:00,42.9,41.0,29.82,South,184,0.0,0.0,92,0.00,,,0.00,weatherlink.com 1.10,2013-10-10 09:09:00,
2013-10-10 02:24:00,42.7,41.0,29.83,South,184,0.0,0.0,93,0.00,,,0.00,weatherlink.com 1.10,2013-10-10 09:24:00,
2013-10-10 02:39:00,42.4,41.0,29.83,South,183,0.0,0.0,93,0.00,,,0.00,weatherlink.com 1.10,2013-10-10 09:39:00,
2013-10-10 02:54:00,42.0,40.0,29.84,South,184,0.0,0.0,92,0.00,,,0.00,weatherlink.com 1.10,2013-10-10 09:54:00,
2013-10-10 03:09:00,41.8,40.0,29.84,South,184,0.0,0.0,93,0.00,,,0.00,weatherlink.com 1.10,2013-10-10 10:09:00,
2013-10-10 03:24:00,41.5,40.0,29.84,South,184,0.0,0.0,93,0.00,,,0.00,weatherlink.com 1.10,2013-10-10 10:24:00,
2013-10-10 03:39:00,41.0,39.0,29.85,South,184,0.0,0.0,93,0.01,,,0.01,weatherlink.com 1.10,2013-10-10 10:39:00,
2013-10-10 03:54:00,41.0,39.0,29.86,South,184,0.0,0.0,93,0.01,,,0.01,weatherlink.com 1.10,2013-10-10 10:54:00,
2013-10-10 04:09:00,40.3,39.0,29.86,South,184,0.0,0.0,93,0.01,,,0.01,weatherlink.com 1.10,2013-10-10 11:09:00,
2013-10-10 04:24:00,40.3,39.0,29.87,South,184,0.0,0.0,93,0.01,,,0.01,weatherlink.com 1.10,2013-10-10 11:24:00,
2013-10-10 04:39:00,40.3,39.0,29.87,South,183,0.0,0.0,93,0.00,,,0.01,weatherlink.com 1.10,2013-10-10 11:39:00,
2013-10-10 04:55:00,40.0,38.0,29.87,South,183,0.0,0.0,93,0.00,,,0.01,weatherlink.com 1.10,2013-10-10 11:55:00,
2013-10-10 05:10:00,40.1,39.0,29.88,South,184,0.0,0.0,94,0.00,,,0.01,weatherlink.com 1.10,2013-10-10 12:10:00,
2013-10-10 05:25:00,39.9,38.0,29.88,South,183,0.0,0.0,94,0.00,,,0.01,weatherlink.com 1.10,2013-10-10 12:25:00,
2013-10-10 05:40:00,39.7,38.0,29.89,South,183,0.0,0.0,94,0.00,,,0.01,weatherlink.com 1.10,2013-10-10 12:40:00,
2013-10-10 05:55:00,39.2,38.0,29.90,South,183,0.0,0.0,94,0.00,,,0.01,weatherlink.com 1.10,2013-10-10 12:55:00,
2013-10-10 06:10:00,39.1,38.0,29.91,South,183,0.0,0.0,94,0.00,,,0.01,weatherlink.com 1.10,2013-10-10 13:10:00,
2013-10-10 06:25:00,39.1,38.0,29.91,South,184,0.0,0.0,94,0.00,,,0.01,weatherlink.com 1.10,2013-10-10 13:25:00,
2013-10-10 06:40:00,39.2,38.0,29.92,WSW,251,0.0,0.0,94,0.00,,,0.01,weatherlink.com 1.10,2013-10-10 13:40:00,
2013-10-10 06:55:00,39.2,38.0,29.92,WSW,252,0.0,0.0,94,0.00,,,0.01,weatherlink.com 1.10,2013-10-10 13:55:00,
2013-10-10 07:10:00,39.2,38.0,29.93,WSW,252,0.0,0.0,94,0.00,,,0.01,weatherlink.com 1.10,2013-10-10 14:10:00,
2013-10-10 07:25:00,39.7,38.0,29.93,WSW,252,0.0,0.0,95,0.00,,,0.01,weatherlink.com 1.10,2013-10-10 14:25:00,
2013-10-10 07:40:00,41.2,40.0,29.95,WSW,252,0.0,0.0,95,0.00,,,0.01,weatherlink.com 1.10,2013-10-10 14:40:00,
2013-10-10 07:55:00,44.6,44.0,29.96,WSW,251,0.0,0.0,96,0.00,,,0.01,weatherlink.com 1.10,2013-10-10 14:55:00,
2013-10-10 08:10:00,46.7,45.0,29.97,WSW,251,0.0,0.0,93,0.00,,,0.01,weatherlink.com 1.10,2013-10-10 15:10:00,
2013-10-10 08:25:00,47.1,46.0,29.98,West,278,0.0,0.0,94,0.00,,,0.01,weatherlink.com 1.10,2013-10-10 15:25:00,
2013-10-10 08:40:00,50.9,50.0,29.98,West,278,0.0,0.0,95,0.00,,,0.01,weatherlink.com 1.10,2013-10-10 15:40:00,
2013-10-10 08:55:00,53.2,51.0,29.99,ENE,61,0.0,0.0,91,0.00,,,0.01,weatherlink.com 1.10,2013-10-10 15:55:00,
2013-10-10 09:10:00,54.6,50.0,29.99,SE,139,0.0,3.0,85,0.00,,,0.01,weatherlink.com 1.10,2013-10-10 16:10:00,
2013-10-10 09:25:00,56.1,49.0,29.99,ESE,110,0.0,2.0,78,0.00,,,0.01,weatherlink.com 1.10,2013-10-10 16:25:00,
2013-10-10 09:40:00,57.3,49.0,30.00,NW,325,2.0,2.0,74,0.00,,,0.01,weatherlink.com 1.10,2013-10-10 16:40:00,
2013-10-10 09:55:00,57.0,48.0,30.00,SW,235,1.0,2.0,72,0.00,,,0.01,weatherlink.com 1.10,2013-10-10 16:55:00,
2013-10-10 10:10:00,58.2,49.0,30.00,NW,314,0.0,4.0,71,0.00,,,0.01,weatherlink.com 1.10,2013-10-10 17:10:00,
2013-10-10 10:26:00,58.9,49.0,30.00,WNW,285,3.0,6.0,69,0.00,,,0.01,weatherlink.com 1.10,2013-10-10 17:26:00,
2013-10-10 10:41:00,59.0,48.0,30.00,ENE,73,2.0,4.0,67,0.00,,,0.01,weatherlink.com 1.10,2013-10-10 17:41:00,
2013-10-10 10:56:00,59.8,48.0,30.00,West,278,1.0,6.0,65,0.00,,,0.01,weatherlink.com 1.10,2013-10-10 17:56:00,
2013-10-10 11:11:00,61.3,48.0,30.00,NNE,18,1.0,5.0,62,0.00,,,0.01,weatherlink.com 1.10,2013-10-10 18:11:00,
2013-10-10 11:26:00,61.4,47.0,30.00,ESE,122,1.0,5.0,59,0.00,,,0.01,weatherlink.com 1.10,2013-10-10 18:26:00,
2013-10-10 11:41:00,62.6,47.0,30.00,NE,34,2.0,4.0,57,0.00,,,0.01,weatherlink.com 1.10,2013-10-10 18:41:00,
2013-10-10 11:56:00,63.9,47.0,30.00,NNE,23,4.0,6.0,54,0.00,,,0.01,weatherlink.com 1.10,2013-10-10 18:56:00,
2013-10-10 12:11:00,64.7,47.0,29.98,WNW,289,3.0,4.0,53,0.00,,,0.01,weatherlink.com 1.10,2013-10-10 19:11:00,
2013-10-10 12:26:00,65.3,48.0,29.98,West,276,1.0,6.0,54,0.00,,,0.01,weatherlink.com 1.10,2013-10-10 19:26:00,
2013-10-10 12:41:00,66.0,48.0,29.98,WSW,253,5.0,11.0,53,0.00,,,0.01,weatherlink.com 1.10,2013-10-10 19:41:00,
2013-10-10 12:56:00,65.2,48.0,29.98,West,267,4.0,11.0,54,0.00,,,0.01,weatherlink.com 1.10,2013-10-10 19:56:00,
2013-10-10 13:11:00,65.0,48.0,29.98,WSW,252,4.0,9.0,55,0.00,,,0.01,weatherlink.com 1.10,2013-10-10 20:11:00,
2013-10-10 13:26:00,65.1,48.0,29.98,West,273,5.0,7.0,55,0.00,,,0.01,weatherlink.com 1.10,2013-10-10 20:26:00,
2013-10-10 13:41:00,65.8,49.0,29.97,WSW,242,4.0,5.0,56,0.00,,,0.01,weatherlink.com 1.10,2013-10-10 20:41:00,
2013-10-10 13:56:00,65.2,49.0,29.98,West,268,6.0,9.0,57,0.00,,,0.01,weatherlink.com 1.10,2013-10-10 20:56:00,
2013-10-10 14:11:00,66.4,50.0,29.98,SSE,147,3.0,8.0,56,0.00,,,0.01,weatherlink.com 1.10,2013-10-10 21:11:00,
2013-10-10 14:26:00,67.9,50.0,29.98,South,170,1.0,7.0,54,0.00,,,0.01,weatherlink.com 1.10,2013-10-10 21:26:00,
2013-10-10 14:41:00,65.8,50.0,29.98,NW,308,5.0,9.0,57,0.00,,,0.01,weatherlink.com 1.10,2013-10-10 21:41:00,
2013-10-10 14:56:00,63.5,50.0,29.98,WNW,290,5.0,10.0,61,0.00,,,0.01,weatherlink.com 1.10,2013-10-10 21:56:00,
2013-10-10 15:11:00,62.9,50.0,29.98,SW,225,0.0,10.0,63,0.00,,,0.01,weatherlink.com 1.10,2013-10-10 22:11:00,
2013-10-10 15:26:00,62.8,50.0,29.98,WNW,292,2.0,11.0,63,0.00,,,0.01,weatherlink.com 1.10,2013-10-10 22:26:00,
2013-10-10 15:41:00,63.0,50.0,29.99,West,268,1.0,7.0,62,0.00,,,0.01,weatherlink.com 1.10,2013-10-10 22:41:00,
2013-10-10 15:56:00,63.1,50.0,29.98,SW,219,3.0,5.0,62,0.00,,,0.01,weatherlink.com 1.10,2013-10-10 22:56:00,
2013-10-10 16:11:00,63.3,50.0,29.98,West,259,2.0,4.0,62,0.00,,,0.01,weatherlink.com 1.10,2013-10-10 23:11:00,
2013-10-10 16:26:00,62.9,49.0,29.98,WNW,300,1.0,6.0,61,0.00,,,0.01,weatherlink.com 1.10,2013-10-10 23:26:00,
2013-10-10 16:41:00,63.1,50.0,29.98,WSW,252,5.0,6.0,62,0.00,,,0.01,weatherlink.com 1.10,2013-10-10 23:41:00,
2013-10-10 16:56:00,63.4,50.0,29.98,WNW,290,4.0,7.0,62,0.00,,,0.01,weatherlink.com 1.10,2013-10-10 23:56:00,
2013-10-10 17:11:00,62.6,50.0,29.98,WSW,250,6.0,-999.0,64,-99.99,,,0.01,weatherlink.com 1.10,2013-10-11 00:11:00,
2013-10-10 17:26:00,62.7,50.0,29.98,West,259,1.0,6.0,64,0.00,,,0.01,weatherlink.com 1.10,2013-10-11 00:26:00,
2013-10-10 17:41:00,62.1,50.0,29.98,WNW,294,3.0,9.0,64,0.00,,,0.01,weatherlink.com 1.10,2013-10-11 00:41:00,
2013-10-10 17:56:00,60.9,49.0,29.99,WNW,302,7.0,7.0,66,0.00,,,0.01,weatherlink.com 1.10,2013-10-11 00:56:00,
2013-10-10 18:11:00,60.0,49.0,29.98,WNW,295,1.0,8.0,68,0.00,,,0.01,weatherlink.com 1.10,2013-10-11 01:11:00,
2013-10-10 18:26:00,59.1,49.0,29.99,WNW,295,1.0,5.0,69,0.00,,,0.01,weatherlink.com 1.10,2013-10-11 01:26:00,
2013-10-10 18:41:00,58.3,49.0,29.99,West,263,0.0,3.0,71,0.00,,,0.01,weatherlink.com 1.10,2013-10-11 01:41:00,
2013-10-10 18:56:00,57.6,49.0,29.99,West,269,0.0,2.0,73,0.00,,,0.01,weatherlink.com 1.10,2013-10-11 01:56:00,
2013-10-10 19:11:00,56.7,49.0,30.00,West,267,0.0,0.0,74,0.00,,,0.01,weatherlink.com 1.10,2013-10-11 02:11:00,
2013-10-10 19:26:00,56.1,49.0,30.00,West,268,0.0,0.0,76,0.00,,,0.01,weatherlink.com 1.10,2013-10-11 02:26:00,
2013-10-10 19:41:00,55.3,48.0,30.00,West,269,0.0,0.0,77,0.00,,,0.01,weatherlink.com 1.10,2013-10-11 02:41:00,
2013-10-10 19:56:00,54.5,48.0,30.00,West,269,0.0,0.0,79,0.00,,,0.01,weatherlink.com 1.10,2013-10-11 02:56:00,
2013-10-10 20:11:00,53.6,48.0,30.01,West,269,0.0,0.0,81,0.00,,,0.01,weatherlink.com 1.10,2013-10-11 03:11:00,
2013-10-10 20:26:00,53.1,48.0,30.01,West,269,0.0,0.0,82,0.00,,,0.01,weatherlink.com 1.10,2013-10-11 03:26:00,
2013-10-10 20:41:00,52.5,48.0,30.02,West,269,0.0,0.0,83,0.00,,,0.01,weatherlink.com 1.10,2013-10-11 03:41:00,
2013-10-10 20:56:00,51.9,47.0,30.02,West,268,0.0,0.0,84,0.00,,,0.01,weatherlink.com 1.10,2013-10-11 03:56:00,
2013-10-10 21:11:00,51.2,47.0,30.02,West,268,0.0,0.0,85,0.00,,,0.01,weatherlink.com 1.10,2013-10-11 04:11:00,
2013-10-10 21:26:00,50.5,46.0,30.03,West,269,0.0,0.0,85,0.00,,,0.01,weatherlink.com 1.10,2013-10-11 04:26:00,
2013-10-10 21:41:00,50.0,46.0,30.03,West,269,0.0,0.0,85,0.00,,,0.01,weatherlink.com 1.10,2013-10-11 04:41:00,
2013-10-10 21:56:00,49.5,46.0,30.03,West,269,0.0,0.0,86,0.00,,,0.01,weatherlink.com 1.10,2013-10-11 04:56:00,
2013-10-10 22:11:00,48.9,45.0,30.04,West,269,0.0,0.0,86,0.00,,,0.01,weatherlink.com 1.10,2013-10-11 05:11:00,
2013-10-10 22:26:00,48.6,45.0,30.04,West,268,0.0,0.0,86,0.00,,,0.01,weatherlink.com 1.10,2013-10-11 05:26:00,
2013-10-10 22:41:00,48.1,44.0,30.03,West,269,0.0,0.0,87,0.00,,,0.01,weatherlink.com 1.10,2013-10-11 05:41:00,
2013-10-10 22:56:00,47.9,45.0,30.03,West,269,0.0,0.0,88,0.00,,,0.01,weatherlink.com 1.10,2013-10-11 05:56:00,
2013-10-10 23:11:00,47.3,44.0,30.03,West,268,0.0,0.0,87,0.00,,,0.01,weatherlink.com 1.10,2013-10-11 06:11:00,
2013-10-10 23:26:00,47.0,44.0,30.03,West,269,0.0,0.0,88,0.00,,,0.01,weatherlink.com 1.10,2013-10-11 06:26:00,
2013-10-10 23:42:00,46.7,44.0,30.03,West,269,0.0,0.0,89,0.00,,,0.01,weatherlink.com 1.10,2013-10-11 06:42:00,
2013-10-10 23:57:00,46.5,44.0,30.03,West,268,0.0,0.0,90,0.00,,,0.01,weatherlink.com 1.10,2013-10-11 06:57:00,